| time (UTC) | temp F | wind direction | speed MPH | gust MPH | rain 1hr in | rain 24hr in | rain mn in | humidity % | barometer mb |
| 20260506004522 | 53 | 55 | 0.0 | 0.0 | 0.00 | 0.04 | 0.01 | 60 | 998.8 |
| 20260506001527 | 55 | 55 | 0.0 | 0.0 | 0.00 | 0.04 | 0.01 | 58 | 998.7 |
| 20260506000044 | 55 | 53 | 0.0 | 0.0 | 0.00 | 0.04 | 0.01 | 56 | 998.8 |
| 20260505234538 | 55 | 53 | 0.0 | 0.0 | 0.01 | 0.04 | 0.01 | 54 | 998.5 |
| 20260505231522 | 57 | 281 | 0.0 | 0.0 | 0.01 | 0.04 | 0.01 | 53 | 998.5 |
| 20260505230044 | 56 | 296 | 0.0 | 0.0 | 0.01 | 0.04 | 0.01 | 60 | 998.5 |
| 20260505224532 | 53 | 292 | 0.0 | 0.0 | 0.00 | 0.03 | 0.00 | 66 | 998.6 |
| 20260505221514 | 52 | 138 | 0.0 | 0.0 | 0.00 | 0.03 | 0.00 | 79 | 999.2 |
| 20260505220009 | 53 | 36 | 0.0 | 1.0 | 0.00 | 0.03 | 0.00 | 69 | 999.1 |
| 20260505214509 | 57 | 51 | 0.0 | 0.0 | 0.00 | 0.03 | 0.00 | 63 | 999.0 |
| 20260505211511 | 61 | 141 | 0.0 | 0.0 | 0.00 | 0.03 | 0.03 | 52 | 998.9 |
| 20260505210007 | 61 | 80 | 0.0 | 1.0 | 0.00 | 0.03 | 0.03 | 55 | 998.6 |
| 20260505204507 | 58 | 315 | 0.0 | 0.0 | 0.00 | 0.03 | 0.03 | 57 | 998.6 |
| 20260505201504 | 58 | 316 | 0.0 | 3.0 | 0.00 | 0.03 | 0.03 | 61 | 998.9 |
| 20260505200004 | 58 | 58 | 0.0 | 1.0 | 0.01 | 0.03 | 0.03 | 61 | 998.6 |
| 20260505194504 | 56 | 325 | 0.0 | 0.0 | 0.03 | 0.03 | 0.03 | 67 | 998.7 |
| 20260505191507 | 52 | 22 | 0.0 | 0.0 | 0.03 | 0.03 | 0.03 | 89 | 999.2 |
| 20260505190004 | 52 | 59 | 0.0 | 0.0 | 0.02 | 0.02 | 0.02 | 78 | 999.6 |
| 20260505184507 | 56 | 61 | 0.0 | 0.0 | 0.00 | 0.00 | 0.00 | 60 | 999.5 |
| 20260505181503 | 58 | 15 | 0.0 | 0.0 | 0.00 | 0.00 | 0.00 | 51 | 999.3 |
| 20260505180003 | 59 | 53 | 0.0 | 1.0 | 0.00 | 0.00 | 0.00 | 49 | 999.3 |
| 20260505174502 | 57 | 53 | 0.0 | 0.0 | 0.00 | 0.00 | 0.00 | 51 | 999.3 |
| 20260505171625 | 55 | 36 | 0.0 | 0.0 | 0.00 | 0.00 | 0.00 | 55 | 999.5 |
| 20260505170057 | 51 | 36 | 0.0 | 0.0 | 0.00 | 0.00 | 0.00 | 61 | 999.6 |
| 20260505164605 | 51 | 36 | 0.0 | 0.0 | 0.00 | 0.00 | 0.00 | 60 | 999.6 |
| 20260505163156 | 50 | 44 | 0.0 | 0.0 | 0.00 | 0.00 | 0.00 | 62 | 999.6 |
| 20260505161556 | 51 | 41 | 0.0 | 0.0 | 0.00 | 0.00 | 0.00 | 62 | 999.8 |
| 20260505153152 | 50 | 305 | 0.0 | 0.0 | 0.00 | 0.00 | 0.00 | 59 | 1000.1 |
| 20260505151553 | 50 | 348 | 0.0 | 0.0 | 0.00 | 0.00 | 0.00 | 60 | 1000.0 |
| 20260505150109 | 50 | 317 | 0.0 | 0.0 | 0.00 | 0.00 | 0.00 | 59 | 1000.0 |
| 20260505124553 | 50 | 294 | 0.0 | 0.0 | 0.00 | 0.00 | 0.00 | 59 | 999.6 |
| 20260505123145 | 50 | 294 | 0.0 | 0.0 | 0.00 | 0.00 | 0.00 | 54 | 999.8 |
| 20260505121616 | 50 | 294 | 0.0 | 0.0 | 0.00 | 0.00 | 0.00 | 51 | 999.8 |
| 20260505120042 | 51 | 294 | 0.0 | 0.0 | 0.00 | 0.00 | 0.00 | 49 | 999.6 |
| 20260505114541 | 51 | 294 | 0.0 | 0.0 | 0.00 | 0.00 | 0.00 | 48 | 999.4 |
| 20260505113141 | 51 | 294 | 0.0 | 0.0 | 0.00 | 0.00 | 0.00 | 45 | 999.6 |
| 20260505111547 | 51 | 294 | 0.0 | 0.0 | 0.00 | 0.00 | 0.00 | 43 | 999.6 |
| 20260505101540 | 53 | 294 | 0.0 | 0.0 | 0.00 | 0.00 | 0.00 | 37 | 999.2 |
| 20260505100041 | 53 | 294 | 0.0 | 0.0 | 0.00 | 0.00 | 0.00 | 35 | 999.2 |
| 20260505094532 | 53 | 260 | 0.0 | 1.0 | 0.00 | 0.00 | 0.00 | 35 | 998.7 |
| 20260505093131 | 53 | 51 | 0.0 | 0.0 | 0.00 | 0.00 | 0.00 | 36 | 998.5 |
| 20260505091537 | 54 | 309 | 0.0 | 1.0 | 0.00 | 0.00 | 0.00 | 36 | 998.5 |
| 20260505090032 | 54 | 278 | 0.0 | 3.0 | 0.00 | 0.00 | 0.00 | 38 | 999.0 |
| 20260505084530 | 54 | 324 | 0.0 | 0.0 | 0.00 | 0.00 | 0.00 | 40 | 999.2 |
| 20260505083128 | 54 | 207 | 0.0 | 0.0 | 0.00 | 0.00 | 0.00 | 39 | 999.1 |
| 20260505081530 | 54 | 308 | 0.0 | 0.0 | 0.00 | 0.00 | 0.00 | 39 | 999.3 |
| 20260505080034 | 55 | 166 | 0.0 | 1.0 | 0.00 | 0.00 | 0.00 | 40 | 999.4 |
| 20260505074522 | 56 | 279 | 0.0 | 6.0 | 0.00 | 0.00 | 0.00 | 37 | 999.2 |
| 20260505073121 | 56 | 244 | 0.0 | 0.0 | 0.00 | 0.00 | 0.00 | 36 | 999.4 |
| 20260505071528 | 56 | 291 | 0.0 | 0.0 | 0.00 | 0.00 | 0.00 | 35 | 999.4 |
| 20260505070018 | 57 | 306 | 0.0 | 0.0 | 0.00 | 0.00 | 0.00 | 34 | 999.2 |
| 20260505064517 | 57 | 68 | 0.0 | 1.0 | 0.00 | 0.00 | 0.00 | 33 | 999.4 |
| 20260505063116 | 57 | 300 | 0.0 | 0.0 | 0.00 | 0.00 | 0.00 | 33 | 999.6 |
| 20260505061520 | 58 | 104 | 0.0 | 1.0 | 0.00 | 0.00 | 0.00 | 32 | 999.6 |
| 20260505060014 | 58 | 315 | 0.0 | 1.0 | 0.00 | 0.00 | 0.00 | 31 | 999.5 |
| 20260505054516 | 58 | 318 | 0.0 | 2.0 | 0.00 | 0.00 | 0.00 | 31 | 999.7 |
| 20260505053111 | 59 | 318 | 0.0 | 0.0 | 0.00 | 0.00 | 0.00 | 29 | 999.7 |
| 20260505051517 | 59 | 307 | 0.0 | 0.0 | 0.00 | 0.00 | 0.00 | 29 | 999.6 |
| 20260505041510 | 60 | 311 | 0.0 | 0.0 | 0.00 | 0.00 | 0.00 | 29 | 999.8 |
| 20260505040009 | 61 | 205 | 0.0 | 0.0 | 0.00 | 0.00 | 0.00 | 28 | 1000.0 |
| 20260505034506 | 61 | 307 | 0.0 | 0.0 | 0.00 | 0.00 | 0.00 | 28 | 1000.0 |
| 20260505033105 | 61 | 311 | 0.0 | 0.0 | 0.00 | 0.00 | 0.00 | 27 | 999.8 |
| 20260505031503 | 62 | 315 | 0.0 | 1.0 | 0.00 | 0.00 | 0.00 | 28 | 999.8 |
| 20260505030107 | 62 | 355 | 0.0 | 0.0 | 0.00 | 0.00 | 0.00 | 26 | 999.6 |
| 20260505024615 | 63 | 263 | 0.0 | 3.0 | 0.00 | 0.00 | 0.00 | 26 | 999.5 |
| 20260505023109 | 63 | 302 | 0.0 | 1.0 | 0.00 | 0.00 | 0.00 | 26 | 999.4 |
| 20260505021559 | 63 | 336 | 0.0 | 0.0 | 0.00 | 0.00 | 0.00 | 26 | 999.2 |
| 20260505020104 | 64 | 75 | 0.0 | 1.0 | 0.00 | 0.00 | 0.00 | 25 | 999.1 |
| 20260505014555 | 64 | 288 | 0.0 | 0.0 | 0.00 | 0.00 | 0.00 | 25 | 999.0 |
| 20260505013054 | 64 | 355 | 0.0 | 0.0 | 0.00 | 0.00 | 0.00 | 24 | 998.7 |
| 20260505011554 | 64 | 68 | 0.0 | 0.0 | 0.00 | 0.00 | 0.00 | 24 | 998.5 |
| 20260505010108 | 64 | 257 | 0.0 | 0.0 | 0.00 | 0.00 | 0.00 | 23 | 998.5 |
| 20260505004551 | 65 | 304 | 0.0 | 0.0 | 0.00 | 0.00 | 0.00 | 22 | 998.7 |